Pawtucket, RI

4:02 AM EDT on March 30, 2017 (GMT -0400)
North Central State

Weather History for KSFZ - March, 2013

Change the Weather History Date:

Saturday, March 23, 2013

  Actual Average Record
Temperature  
Mean Temperature 34 °F -  
Max Temperature 41 °F 45 °F 73 °F (2012)
Min Temperature 28 °F 29 °F 10 °F (2015)
Degree Days  
Heating Degree Days 30    
Moisture  
Dew Point 17 °F    
Average Humidity 50    
Maximum Humidity 69    
Minimum Humidity 36    
Precipitation  
Precipitation 0.00 in - - ()
Sea Level Pressure  
Sea Level Pressure 29.73 in    
Wind  
Wind Speed 14 mph (WNW)    
Max Wind Speed 24 mph    
Max Gust Speed 32 mph    
Visibility 10 miles    
Events      
Averages and records for this station are not official NWS values.
T = Trace of Precipitation, MM = Missing Value Source: NWS Daily Summary

Daily Weather History Graph

Daily Weather History Graph

Search for Another Location

Airport or City:

Trip Planner

Search our weather history database for the weather conditions in past years. The results will help you decide how hot, cold, wet, or windy it might be!

Date:

Astronomy

Mar. 23, 2013 Rise Set
Actual Time 6:43 AM EDT 7:01 PM EDT
Civil Twilight 6:15 AM EDT 7:29 PM EDT
Nautical Twilight 5:43 AM EDT 8:02 PM EDT
Astronomical Twilight 5:09 AM EDT 8:36 PM EDT
Moon 3:22 PM EDT (3/23) 4:21 AM EDT (3/23)
Length of Visible Light 13h 13m
Length of Day
12h 18m
Waxing Gibbous, 85% of the Moon is Illuminated
Mar 23
Waxing Gibbous
Mar 27
Full
Apr 3
Last Quarter
Apr 10
New
Apr 18
First Quarter

Hourly Weather History & Observations

Time (EDT) Temp. Windchill Dew Point Humidity Pressure Visibility Wind Dir Wind Speed Gust Speed Precip Events Conditions
12:15 AM 30.2 °F 19.8 °F 15.8 °F 55% 29.75 in 10.0 mi WNW 13.8 mph 20.7 mph N/A   Clear
12:55 AM 30.2 °F 19.8 °F 15.8 °F 55% 29.75 in 10.0 mi West 13.8 mph 23.0 mph N/A   Clear
1:15 AM 30.2 °F 18.5 °F 15.8 °F 55% 29.75 in 10.0 mi WNW 17.3 mph 24.2 mph N/A   Clear
1:35 AM 30.2 °F 20.8 °F 15.8 °F 55% 29.76 in 10.0 mi WNW 11.5 mph 16.1 mph N/A   Clear
1:55 AM 30.2 °F 20.2 °F 15.8 °F 55% 29.76 in 10.0 mi West 12.7 mph 18.4 mph N/A   Clear
2:15 AM 28.4 °F 18.5 °F 15.8 °F 59% 29.75 in 10.0 mi WNW 11.5 mph 16.1 mph N/A   Clear
2:35 AM 28.4 °F 17.0 °F 15.8 °F 59% 29.75 in 10.0 mi West 15.0 mph 19.6 mph N/A   Clear
2:55 AM 28.4 °F 18.5 °F 17.6 °F 64% 29.75 in 10.0 mi West 11.5 mph - N/A   Clear
3:35 AM 28.4 °F 19.7 °F 17.6 °F 64% 29.75 in 10.0 mi West 9.2 mph - N/A   Clear
3:55 AM 28.4 °F 20.4 °F 17.6 °F 64% 29.75 in 10.0 mi West 8.1 mph - N/A   Clear
4:15 AM 28.4 °F 19.1 °F 17.6 °F 64% 29.74 in 10.0 mi West 10.4 mph - N/A   Clear
4:35 AM 28.4 °F 19.1 °F 17.6 °F 64% 29.73 in 10.0 mi West 10.4 mph - N/A   Clear
4:55 AM 28.4 °F 19.1 °F 17.6 °F 64% 29.73 in 10.0 mi West 10.4 mph - N/A   Clear
5:15 AM 28.4 °F 19.1 °F 19.4 °F 69% 29.73 in 10.0 mi West 10.4 mph 17.3 mph N/A   Clear
5:55 AM 28.4 °F 23.3 °F 19.4 °F 69% 29.74 in 10.0 mi West 4.6 mph - N/A   Mostly Cloudy
6:15 AM 30.2 °F 23.4 °F 19.4 °F 64% 29.74 in 10.0 mi West 6.9 mph - N/A   Overcast
6:35 AM 30.2 °F 22.6 °F 19.4 °F 64% 29.74 in 10.0 mi West 8.1 mph - N/A   Overcast
6:55 AM 28.4 °F 21.2 °F 19.4 °F 69% 29.74 in 10.0 mi West 6.9 mph - N/A   Scattered Clouds
7:15 AM 30.2 °F 21.3 °F 21.2 °F 69% 29.74 in 10.0 mi West 10.4 mph 16.1 mph N/A   Clear
7:35 AM 30.2 °F 21.3 °F 21.2 °F 69% 29.73 in 10.0 mi West 10.4 mph 16.1 mph N/A   Partly Cloudy
7:55 AM 32.0 °F 22.1 °F 19.4 °F 60% 29.73 in 10.0 mi West 13.8 mph 19.6 mph N/A   Clear
8:35 AM 33.8 °F 23.9 °F 21.2 °F 60% 29.73 in 10.0 mi West 15.0 mph 25.3 mph N/A   Clear
8:55 AM 33.8 °F 22.5 °F 19.4 °F 56% 29.72 in 10.0 mi West 19.6 mph 27.6 mph N/A   Partly Cloudy
9:15 AM 35.6 °F 25.5 °F 19.4 °F 52% 29.72 in 10.0 mi West 17.3 mph 26.5 mph N/A   Partly Cloudy
9:35 AM 35.6 °F 25.2 °F 19.4 °F 52% 29.72 in 10.0 mi WNW 18.4 mph 27.6 mph N/A   Partly Cloudy
9:55 AM 35.6 °F 26.2 °F 17.6 °F 48% 29.72 in 10.0 mi West 15.0 mph 25.3 mph N/A   Scattered Clouds
10:15 AM 35.6 °F 24.8 °F 17.6 °F 48% 29.72 in 10.0 mi West 19.6 mph 26.5 mph N/A   Overcast
10:35 AM 35.6 °F 25.9 °F 17.6 °F 48% 29.72 in 10.0 mi WNW 16.1 mph 25.3 mph N/A   Overcast
10:55 AM 37.4 °F 28.5 °F 17.6 °F 45% 29.71 in 10.0 mi West 15.0 mph 24.2 mph N/A   Overcast
11:35 AM 37.4 °F 27.2 °F 17.6 °F 45% 29.71 in 10.0 mi WNW 19.6 mph 29.9 mph N/A   Overcast
11:55 AM 39.2 °F 29.6 °F 17.6 °F 42% 29.70 in 10.0 mi West 19.6 mph 31.1 mph N/A   Overcast
12:15 PM 39.2 °F 29.6 °F 17.6 °F 42% 29.71 in 10.0 mi West 19.6 mph 27.6 mph N/A   Mostly Cloudy
12:35 PM 39.2 °F 31.2 °F 17.6 °F 42% 29.70 in 10.0 mi West 13.8 mph 32.2 mph N/A   Scattered Clouds
12:55 PM 39.2 °F 29.0 °F 17.6 °F 42% 29.70 in 10.0 mi West 21.9 mph 28.8 mph N/A   Partly Cloudy
1:15 PM 39.2 °F 29.3 °F 17.6 °F 42% 29.70 in 10.0 mi WNW 20.7 mph 32.2 mph N/A   Scattered Clouds
1:35 PM 39.2 °F 29.3 °F 17.6 °F 42% 29.70 in 10.0 mi WNW 20.7 mph 31.1 mph N/A   Scattered Clouds
2:15 PM 41.0 °F 32.8 °F 17.6 °F 39% 29.69 in 10.0 mi WNW 16.1 mph 26.5 mph N/A   Mostly Cloudy
3:15 PM 41.0 °F 31.6 °F 15.8 °F 36% 29.68 in 10.0 mi WNW 20.7 mph 29.9 mph N/A   Mostly Cloudy
3:35 PM 41.0 °F 32.8 °F 15.8 °F 36% 29.68 in 10.0 mi West 16.1 mph 31.1 mph N/A   Mostly Cloudy
3:55 PM 41.0 °F 32.2 °F 15.8 °F 36% 29.68 in 10.0 mi WNW 18.4 mph 28.8 mph N/A   Mostly Cloudy
4:15 PM 41.0 °F 31.4 °F 15.8 °F 36% 29.68 in 10.0 mi WNW 21.9 mph 31.1 mph N/A   Scattered Clouds
4:35 PM 41.0 °F 31.4 °F 15.8 °F 36% 29.68 in 10.0 mi WNW 21.9 mph 32.2 mph N/A   Scattered Clouds
4:55 PM 41.0 °F 31.6 °F 15.8 °F 36% 29.69 in 10.0 mi NW 20.7 mph 27.6 mph N/A   Scattered Clouds
5:15 PM 41.0 °F 33.5 °F 15.8 °F 36% 29.69 in 10.0 mi WNW 13.8 mph 21.9 mph N/A   Mostly Cloudy
5:35 PM 39.2 °F 30.5 °F 14.0 °F 36% 29.70 in 10.0 mi WNW 16.1 mph 28.8 mph N/A   Mostly Cloudy
6:15 PM 39.2 °F 28.5 °F 14.0 °F 36% 29.71 in 10.0 mi WNW 24.2 mph 31.1 mph N/A   Clear
6:35 PM 37.4 °F 28.5 °F 15.8 °F 41% 29.72 in 10.0 mi WNW 15.0 mph 25.3 mph N/A   Clear
6:55 PM 37.4 °F 29.3 °F 15.8 °F 41% 29.73 in 10.0 mi WNW 12.7 mph 24.2 mph N/A   Clear
7:15 PM 37.4 °F 28.9 °F 15.8 °F 41% 29.74 in 10.0 mi WNW 13.8 mph 25.3 mph N/A   Clear
7:35 PM 35.6 °F 28.0 °F 15.8 °F 44% 29.75 in 10.0 mi WNW 10.4 mph 25.3 mph N/A   Clear
7:55 PM 35.6 °F 26.2 °F 15.8 °F 44% 29.75 in 10.0 mi WNW 15.0 mph 18.4 mph N/A   Clear
8:15 PM 35.6 °F 28.0 °F 15.8 °F 44% 29.77 in 10.0 mi WNW 10.4 mph - N/A   Clear
8:35 PM 35.6 °F 28.0 °F 15.8 °F 44% 29.77 in 10.0 mi WNW 10.4 mph 18.4 mph N/A   Clear
9:15 PM 35.6 °F 28.6 °F 15.8 °F 44% 29.79 in 10.0 mi WNW 9.2 mph - N/A   Clear
9:35 PM 33.8 °F 28.6 °F 15.8 °F 48% 29.79 in 10.0 mi WNW 5.8 mph - N/A   Clear
9:55 PM 33.8 °F 27.0 °F 15.8 °F 48% 29.80 in 10.0 mi West 8.1 mph - N/A   Scattered Clouds
10:15 PM 33.8 °F 25.8 °F 15.8 °F 48% 29.80 in 10.0 mi West 10.4 mph - N/A   Overcast
10:55 PM 33.8 °F 27.0 °F 15.8 °F 48% 29.80 in 10.0 mi West 8.1 mph - N/A   Scattered Clouds
11:16 PM 33.8 °F 26.4 °F 15.8 °F 48% 29.81 in 10.0 mi West 9.2 mph - N/A   Clear